Zurück zum Katalog

ONEWEB-0365

AktivKommunikationPO
NORAD 49291·PAYLOAD·🇬🇧 United Kingdom

Gestartet Oct 14, 2021 von Vostochny Cosmodrome

Loading…

Nächste Überflüge (nächste 24 Stunden)

TLE

AktuellSource: CelesTrak SupGP

Epoche: Sep 14, 2026, 12:32 UTC

1 49291C 21090N   26257.52272407  .00001683  00000+0  42082-2 0  2570
2 49291  87.9108 287.1738 0001919  94.3380  19.0039 13.19725208    14

Verfolge ONEWEB-0365 in Echtzeit mit AllMySat

Download on the App Store